ENT2WZ EPWA-LGIR

Flight info

Callsign ENT2WZ
Flight time N/A
Altitude 37000
Route EVINA DCT KOTEK DCT KEKED/N0441F390 DCT VERIG DCT LOMOS DCT NIKTI DCT KOROS/N0440F380 DCT NEVRA/N0441F390 UT514 GIVIS T514 XAVIS
Aircraft B738/M-SDGHIJ1RWXY/EB1

Departure

Time N/A
Airport Warsaw Chopin Airport (EPWA)

Arrival

Time 2026-05-06 19:41
Airport Heraklion International Nikos Kazantzakis Airport (LGIR)
Time Latitude Longitude Altitude Speed Heading
2026-05-06 18:17 44.77165 22.84013 36959 ft 460 kts 166°
2026-05-06 18:17 44.71062 22.86720 36962 ft 460 kts 166°
2026-05-06 18:18 44.65008 22.89398 36967 ft 459 kts 166°
2026-05-06 18:18 44.58918 22.92088 36956 ft 458 kts 166°
2026-05-06 18:19 44.52848 22.94763 36968 ft 457 kts 166°
2026-05-06 18:19 44.46782 22.97430 36960 ft 457 kts 166°
2026-05-06 18:20 44.40722 23.00088 36962 ft 456 kts 166°
2026-05-06 18:20 44.34673 23.02736 36952 ft 456 kts 166°
2026-05-06 18:21 44.28619 23.05380 36977 ft 456 kts 166°
2026-05-06 18:21 44.22550 23.08025 36969 ft 457 kts 166°
2026-05-06 18:22 44.16467 23.10671 36953 ft 459 kts 166°
2026-05-06 18:22 44.10370 23.13317 36970 ft 459 kts 166°
2026-05-06 18:23 44.04259 23.15964 36961 ft 460 kts 166°
2026-05-06 18:23 43.98136 23.18610 36960 ft 461 kts 165°
2026-05-06 18:24 43.92008 23.21253 36962 ft 462 kts 165°
2026-05-06 18:24 43.85870 23.23895 36960 ft 462 kts 165°
2026-05-06 18:25 43.79719 23.26480 36971 ft 462 kts 166°
2026-05-06 18:25 43.73537 23.28909 36961 ft 462 kts 167°
2026-05-06 18:26 43.67399 23.31295 36962 ft 461 kts 167°
2026-05-06 18:26 43.61232 23.33708 36968 ft 460 kts 167°
2026-05-06 18:27 43.55070 23.36125 36968 ft 460 kts 167°
2026-05-06 18:27 43.48916 23.38539 36965 ft 460 kts 167°
2026-05-06 18:28 43.42764 23.40946 36971 ft 459 kts 167°
2026-05-06 18:28 43.36624 23.43343 36979 ft 459 kts 167°
2026-05-06 18:29 43.30475 23.45738 36977 ft 459 kts 167°
2026-05-06 18:29 43.24328 23.48128 36985 ft 459 kts 167°
2026-05-06 18:30 43.18181 23.50510 36976 ft 459 kts 167°
2026-05-06 18:30 43.12039 23.52889 36984 ft 459 kts 167°
2026-05-06 18:31 43.05891 23.55264 36991 ft 459 kts 167°
2026-05-06 18:31 42.99732 23.57635 37006 ft 460 kts 167°
2026-05-06 18:32 42.93562 23.60009 37009 ft 462 kts 167°
2026-05-06 18:32 42.87370 23.62388 36996 ft 463 kts 167°
2026-05-06 18:33 42.81170 23.64763 37001 ft 463 kts 167°
2026-05-06 18:33 42.74968 23.67134 37001 ft 463 kts 167°
2026-05-06 18:34 42.68762 23.69501 37014 ft 463 kts 167°
2026-05-06 18:34 42.62556 23.71864 37016 ft 463 kts 167°
2026-05-06 18:35 42.56394 23.74205 37018 ft 462 kts 167°
2026-05-06 18:35 42.50194 23.76555 37023 ft 462 kts 167°
2026-05-06 18:36 42.43995 23.78901 37020 ft 462 kts 167°
2026-05-06 18:36 42.37797 23.81241 37033 ft 462 kts 167°
2026-05-06 18:37 42.32648 23.83181 37025 ft 463 kts 167°
2026-05-06 18:37 42.25397 23.85908 37033 ft 463 kts 167°
2026-05-06 18:38 42.19190 23.88238 37034 ft 463 kts 167°
2026-05-06 18:38 42.12977 23.90565 37028 ft 464 kts 167°
2026-05-06 18:39 42.06756 23.92888 37033 ft 464 kts 167°
2026-05-06 18:40 41.97418 23.96368 37048 ft 464 kts 167°
2026-05-06 18:40 41.91191 23.98679 37064 ft 465 kts 167°
2026-05-06 18:41 41.84993 24.00984 37057 ft 465 kts 167°
2026-05-06 18:41 41.78751 24.03297 37057 ft 465 kts 167°
2026-05-06 18:42 41.72510 24.05604 37066 ft 465 kts 167°
2026-05-06 18:42 41.66275 24.07904 37061 ft 465 kts 167°
2026-05-06 18:43 41.60032 24.10203 37061 ft 465 kts 167°
2026-05-06 18:43 41.53787 24.12494 37074 ft 465 kts 168°
2026-05-06 18:44 41.47511 24.14645 37055 ft 465 kts 169°
2026-05-06 18:44 41.41224 24.16722 37062 ft 465 kts 169°
2026-05-06 18:45 41.34937 24.18807 37060 ft 466 kts 169°
2026-05-06 18:45 41.28642 24.20908 37048 ft 466 kts 168°
2026-05-06 18:46 41.22350 24.23010 37049 ft 466 kts 169°
2026-05-06 18:46 41.16053 24.25110 37050 ft 467 kts 168°
2026-05-06 18:47 41.10814 24.26854 37049 ft 467 kts 169°
2026-05-06 18:47 41.04513 24.28945 37053 ft 467 kts 169°
2026-05-06 18:48 40.98209 24.31036 37040 ft 467 kts 169°
2026-05-06 18:48 40.91903 24.33121 37056 ft 467 kts 169°
2026-05-06 18:49 40.85595 24.35203 37041 ft 467 kts 169°
2026-05-06 18:49 40.79295 24.37279 37046 ft 467 kts 169°
2026-05-06 18:50 40.72997 24.39351 37047 ft 467 kts 169°
2026-05-06 18:50 40.66696 24.41419 37059 ft 467 kts 169°
2026-05-06 18:51 40.60390 24.43484 37045 ft 467 kts 169°
2026-05-06 18:51 40.54117 24.45535 37046 ft 468 kts 169°
2026-05-06 18:52 40.47800 24.47596 37053 ft 468 kts 169°
2026-05-06 18:52 40.41475 24.49656 37053 ft 468 kts 169°
2026-05-06 18:53 40.35148 24.51713 37051 ft 469 kts 169°
2026-05-06 18:53 40.28812 24.53768 37051 ft 469 kts 169°
2026-05-06 18:54 40.22480 24.55819 37052 ft 469 kts 169°
2026-05-06 18:54 40.16147 24.57866 37051 ft 469 kts 169°
2026-05-06 18:55 40.09818 24.59907 37052 ft 468 kts 169°
2026-05-06 18:55 40.03493 24.61943 37054 ft 468 kts 169°
2026-05-06 18:56 39.97172 24.63974 37062 ft 468 kts 169°
2026-05-06 18:56 39.90854 24.66001 37058 ft 467 kts 169°
2026-05-06 18:57 39.84541 24.68021 37056 ft 467 kts 169°
2026-05-06 18:57 39.78236 24.70036 37061 ft 466 kts 169°
2026-05-06 18:58 39.71933 24.72046 37061 ft 466 kts 169°
2026-05-06 18:58 39.65636 24.74050 37051 ft 466 kts 169°
2026-05-06 18:59 39.59336 24.76052 37061 ft 466 kts 169°
2026-05-06 18:59 39.53044 24.78047 37062 ft 466 kts 169°
2026-05-06 19:00 39.46751 24.80039 37062 ft 466 kts 169°
2026-05-06 19:00 39.40458 24.82027 37063 ft 465 kts 169°
2026-05-06 19:01 39.34166 24.84011 37064 ft 465 kts 169°
2026-05-06 19:01 39.27873 24.85992 37059 ft 466 kts 169°
2026-05-06 19:02 39.21576 24.87971 37057 ft 466 kts 169°
2026-05-06 19:02 39.15275 24.89938 37066 ft 465 kts 171°
2026-05-06 19:03 39.08939 24.91061 37064 ft 462 kts 177°
2026-05-06 19:03 39.02529 24.91833 37062 ft 462 kts 178°
2026-05-06 19:04 38.96123 24.92631 37057 ft 463 kts 177°
2026-05-06 19:04 38.89715 24.93490 37064 ft 463 kts 177°
2026-05-06 19:05 38.83304 24.94376 37064 ft 463 kts 177°
2026-05-06 19:05 38.76894 24.95266 37061 ft 463 kts 177°
2026-05-06 19:06 38.70485 24.96152 37062 ft 463 kts 177°
2026-05-06 19:06 38.64079 24.97034 37062 ft 463 kts 177°
2026-05-06 19:07 38.57674 24.97914 37055 ft 463 kts 177°
2026-05-06 19:07 38.51271 24.98793 37065 ft 463 kts 177°
2026-05-06 19:08 38.44873 24.99669 37062 ft 462 kts 177°
2026-05-06 19:08 38.38472 25.00543 37065 ft 462 kts 177°
2026-05-06 19:09 38.32123 25.01410 37061 ft 462 kts 177°
2026-05-06 19:09 38.25724 25.02281 37072 ft 462 kts 177°
2026-05-06 19:10 38.19331 25.03150 37071 ft 462 kts 177°
2026-05-06 19:10 38.12934 25.04018 37064 ft 462 kts 177°
2026-05-06 19:11 38.06537 25.04885 37073 ft 462 kts 177°
2026-05-06 19:11 38.00139 25.05750 37070 ft 462 kts 177°
2026-05-06 19:12 37.93744 25.06613 37072 ft 462 kts 177°
2026-05-06 19:12 37.87348 25.07475 37074 ft 462 kts 177°
2026-05-06 19:13 37.80949 25.08336 37075 ft 462 kts 177°
2026-05-06 19:13 37.74555 25.09195 37075 ft 462 kts 177°
2026-05-06 19:13 37.71341 25.09625 36744 ft 467 kts 177°
2026-05-06 19:14 37.68152 25.10052 36257 ft 466 kts 177°
2026-05-06 19:14 37.64936 25.10483 35772 ft 463 kts 177°
2026-05-06 19:14 37.61749 25.10912 35375 ft 459 kts 177°
2026-05-06 19:14 37.58590 25.11335 34946 ft 455 kts 178°
2026-05-06 19:15 37.55450 25.11756 34542 ft 452 kts 178°
2026-05-06 19:15 37.52331 25.12173 34120 ft 449 kts 178°
2026-05-06 19:15 37.49231 25.12586 33657 ft 447 kts 178°
2026-05-06 19:15 37.46152 25.12995 33205 ft 444 kts 178°
2026-05-06 19:16 37.43093 25.13402 32787 ft 440 kts 178°
2026-05-06 19:16 37.40058 25.13806 32375 ft 437 kts 178°
2026-05-06 19:16 37.37044 25.14206 31968 ft 434 kts 177°
2026-05-06 19:16 37.34054 25.14603 31566 ft 431 kts 177°
2026-05-06 19:17 37.31083 25.14997 31165 ft 428 kts 177°
2026-05-06 19:17 37.28117 25.15389 30776 ft 430 kts 177°
2026-05-06 19:17 37.25134 25.15782 30385 ft 432 kts 177°
2026-05-06 19:17 37.22156 25.16176 29950 ft 429 kts 176°
2026-05-06 19:18 37.19195 25.16568 29492 ft 426 kts 176°
2026-05-06 19:18 37.16256 25.16957 29055 ft 422 kts 176°
2026-05-06 19:18 37.13350 25.17342 28646 ft 418 kts 176°
2026-05-06 19:18 37.10468 25.17722 28240 ft 415 kts 176°
2026-05-06 19:19 37.07604 25.18100 27829 ft 412 kts 176°
2026-05-06 19:19 37.04759 25.18475 27425 ft 409 kts 176°
2026-05-06 19:19 37.01942 25.18849 27015 ft 406 kts 176°
2026-05-06 19:19 36.99148 25.19218 26629 ft 403 kts 176°
2026-05-06 19:20 36.96371 25.19582 26237 ft 400 kts 176°
2026-05-06 19:20 36.93614 25.19942 25848 ft 397 kts 176°
2026-05-06 19:20 36.90867 25.20301 25453 ft 395 kts 176°
2026-05-06 19:20 36.88137 25.20658 25070 ft 394 kts 176°
2026-05-06 19:21 36.85418 25.21014 24656 ft 393 kts 176°
2026-05-06 19:21 36.82702 25.21369 24262 ft 392 kts 176°
2026-05-06 19:21 36.79997 25.21723 23864 ft 391 kts 176°
2026-05-06 19:21 36.77297 25.22076 23428 ft 389 kts 176°
2026-05-06 19:22 36.74608 25.22427 22999 ft 387 kts 176°
2026-05-06 19:22 36.71937 25.22777 22598 ft 385 kts 176°
2026-05-06 19:22 36.69284 25.23123 22207 ft 382 kts 176°
2026-05-06 19:22 36.66687 25.23462 21824 ft 379 kts 176°
2026-05-06 19:23 36.64071 25.23803 21446 ft 377 kts 176°
2026-05-06 19:23 36.61470 25.24142 21074 ft 375 kts 176°
2026-05-06 19:23 36.58886 25.24478 20696 ft 373 kts 176°
2026-05-06 19:23 36.56313 25.24813 20320 ft 371 kts 176°
2026-05-06 19:24 36.53755 25.25145 19946 ft 369 kts 176°
2026-05-06 19:24 36.51209 25.25476 19576 ft 367 kts 176°
2026-05-06 19:24 36.48668 25.25806 19184 ft 366 kts 176°
2026-05-06 19:24 36.46140 25.26133 18824 ft 365 kts 176°
2026-05-06 19:25 36.43615 25.26461 18436 ft 364 kts 176°
2026-05-06 19:25 36.41096 25.26787 18028 ft 363 kts 176°
2026-05-06 19:25 36.38588 25.27111 17633 ft 361 kts 176°
2026-05-06 19:25 36.36103 25.27433 17257 ft 358 kts 176°
2026-05-06 19:26 36.33628 25.27753 16884 ft 356 kts 176°
2026-05-06 19:26 36.31174 25.28070 16521 ft 353 kts 176°
2026-05-06 19:26 36.28737 25.28385 16160 ft 351 kts 176°
2026-05-06 19:26 36.26317 25.28697 15804 ft 349 kts 176°
2026-05-06 19:27 36.23914 25.29007 15452 ft 346 kts 176°
2026-05-06 19:27 36.21526 25.29315 15101 ft 344 kts 176°
2026-05-06 19:27 36.19152 25.29621 14743 ft 342 kts 176°
2026-05-06 19:27 36.16790 25.29924 14400 ft 340 kts 176°
2026-05-06 19:28 36.14437 25.30227 14056 ft 338 kts 175°
2026-05-06 19:28 36.12103 25.30527 13685 ft 337 kts 175°
2026-05-06 19:28 36.09779 25.30826 13299 ft 335 kts 175°
2026-05-06 19:28 36.07471 25.31122 12934 ft 332 kts 175°
2026-05-06 19:29 36.05176 25.31416 12586 ft 330 kts 175°
2026-05-06 19:29 36.02905 25.31708 12241 ft 327 kts 175°
2026-05-06 19:29 36.00645 25.31998 11885 ft 325 kts 175°
2026-05-06 19:29 35.98403 25.32285 11562 ft 323 kts 175°
2026-05-06 19:30 35.96181 25.32569 11225 ft 320 kts 175°
2026-05-06 19:30 35.93970 25.32852 10893 ft 318 kts 175°
2026-05-06 19:30 35.91775 25.33133 10562 ft 316 kts 174°
2026-05-06 19:30 35.89601 25.33411 10360 ft 310 kts 174°
2026-05-06 19:31 35.87486 25.33681 10213 ft 302 kts 174°
2026-05-06 19:31 35.85421 25.33945 10025 ft 296 kts 174°
2026-05-06 19:31 35.81370 25.34462 9412 ft 293 kts 174°
2026-05-06 19:32 35.79350 25.34719 9125 ft 291 kts 174°
2026-05-06 19:32 35.77344 25.34975 8828 ft 289 kts 174°
2026-05-06 19:32 35.75352 25.35229 8542 ft 287 kts 174°
2026-05-06 19:32 35.73376 25.35480 8261 ft 285 kts 174°
2026-05-06 19:33 35.71409 25.35730 7966 ft 283 kts 174°
2026-05-06 19:33 35.69453 25.35979 7689 ft 282 kts 174°
2026-05-06 19:33 35.67509 25.36226 7412 ft 280 kts 174°
2026-05-06 19:33 35.65575 25.36472 7134 ft 279 kts 174°
2026-05-06 19:34 35.63651 25.36716 6860 ft 277 kts 174°
2026-05-06 19:34 35.61734 25.36960 6582 ft 276 kts 174°
2026-05-06 19:34 35.59823 25.37202 6276 ft 276 kts 174°
2026-05-06 19:34 35.57904 25.37446 5890 ft 279 kts 174°
2026-05-06 19:35 35.55980 25.37690 5590 ft 278 kts 174°
2026-05-06 19:35 35.54057 25.37934 5282 ft 277 kts 174°
2026-05-06 19:35 35.52156 25.38175 5031 ft 274 kts 174°
2026-05-06 19:35 35.50266 25.38414 4761 ft 272 kts 175°
2026-05-06 19:36 35.48398 25.38650 4554 ft 266 kts 175°
2026-05-06 19:36 35.46582 25.38880 4433 ft 258 kts 175°
2026-05-06 19:36 35.44818 25.39053 4317 ft 250 kts 184°
2026-05-06 19:36 35.43168 25.38681 4321 ft 235 kts 195°
2026-05-06 19:37 35.41591 25.38218 4144 ft 231 kts 194°
2026-05-06 19:37 35.40037 25.37785 3942 ft 228 kts 193°
2026-05-06 19:37 35.39011 25.37505 3794 ft 228 kts 193°
2026-05-06 19:37 35.37467 25.37089 3566 ft 227 kts 193°
2026-05-06 19:38 35.35428 25.36544 3176 ft 229 kts 193°
2026-05-06 19:38 35.33963 25.35864 2987 ft 223 kts 220°
2026-05-06 19:38 35.33175 25.34330 2831 ft 213 kts 258°
2026-05-06 19:38 35.33060 25.32531 2568 ft 213 kts 270°
2026-05-06 19:39 35.33086 25.31316 2335 ft 209 kts 273°
2026-05-06 19:39 35.33182 25.29591 2051 ft 196 kts 274°
2026-05-06 19:39 35.33291 25.27981 1760 ft 183 kts 274°
2026-05-06 19:39 35.33393 25.26492 1515 ft 166 kts 274°
2026-05-06 19:40 35.33486 25.25140 1272 ft 154 kts 274°
2026-05-06 19:40 35.33574 25.23857 1036 ft 149 kts 274°
2026-05-06 19:40 35.33659 25.22586 811 ft 151 kts 274°
2026-05-06 19:40 35.33742 25.21318 521 ft 151 kts 275°
2026-05-06 19:41 35.33835 25.20049 261 ft 148 kts 272°
2026-05-06 19:41 35.33921 25.18817 95 ft 142 kts 273°
2026-05-06 19:41 35.33992 25.17755 92 ft 104 kts 275°
2026-05-06 19:41 35.34026 25.17253 89 ft 21 kts 273°
2026-05-06 19:42 35.33991 25.17101 91 ft 13 kts 248°
2026-05-06 19:42 35.33955 25.17056 89 ft 2 kts 158°
2026-05-06 19:42 35.33944 25.17075 90 ft 4 kts 110°
2026-05-06 19:42 35.33936 25.17149 89 ft 12 kts 96°
2026-05-06 19:43 35.33928 25.17258 90 ft 13 kts 95°
2026-05-06 19:43 35.33921 25.17367 90 ft 13 kts 95°
2026-05-06 19:43 35.33912 25.17472 90 ft 12 kts 105°
2026-05-06 19:43 35.33839 25.17496 90 ft 12 kts 185°
2026-05-06 19:44 35.33770 25.17476 90 ft 6 kts 232°
2026-05-06 19:44 35.33767 25.17438 90 ft 2 kts 272°
2026-05-06 19:44 35.33768 25.17423 92 ft 2 kts 274°
2026-05-06 19:44 35.33768 25.17414 92 ft 0 kts 274°